Simultaneous Nadir Overpasses (SNOs) Predictions

Prediction of SNOs near equator between AQUA and NPP Satellite Orbit:

Table of predicted SNOs near equator for the next 14.0 days since TLE Epoch: 9/25/2016
Index Date (AQUA) Time (AQUA) AQUA Lat,Lon Date (NPP) Time (NPP) NPP Lat,Lon Distance(km) Time Diff (sec)
1 09/26/2016 07:51:46 3.73, 85.30 09/26/2016 07:42:30 3.74, 85.24 6.54 556
2 09/26/2016 08:39:51 0.94,-106.05 09/26/2016 08:31:50 1.00,-106.37 35.78 481
3 09/26/2016 09:28:06 -5.52, 62.54 09/26/2016 09:21:20 -5.66, 61.97 65.40 406
4 09/26/2016 10:16:13 10.08,-128.82 09/26/2016 10:10:43 10.23,-129.66 94.05 330
5 09/28/2016 23:22:55 -18.79, 30.25 09/28/2016 23:12:55 -18.80, 30.23 2.04 600
6 09/29/2016 00:07:47 1.97,-158.45 09/28/2016 23:58:57 1.92,-158.60 16.41 530
7 09/29/2016 00:55:55 2.52, 10.16 09/29/2016 00:48:20 2.64, 9.76 46.34 455
8 09/29/2016 01:44:09 -7.16, 178.77 09/29/2016 01:37:50 -7.30, 178.10 75.57 379
9 10/01/2016 15:36:30 -8.30, 148.45 10/01/2016 15:26:53 -8.30, 148.43 1.18 577
10 10/01/2016 16:23:49 0.34, -42.23 10/01/2016 16:15:26 0.29, -42.47 26.94 503
11 10/01/2016 17:11:57 4.15, 126.38 10/01/2016 17:04:49 4.27, 125.88 56.74 428
12 10/01/2016 18:00:11 -8.79, -65.01 10/01/2016 17:54:19 -8.94, -65.77 85.70 352
13 10/04/2016 07:51:38 -3.37, -94.62 10/04/2016 07:42:26 -3.32, -94.68 8.34 552
14 10/04/2016 08:39:52 -1.27, 73.99 10/04/2016 08:31:56 -1.35, 73.65 37.59 476
15 10/04/2016 09:28:00 5.77,-117.40 10/04/2016 09:21:19 5.91,-117.99 67.17 401
16 10/04/2016 10:16:14 -10.40, 51.22 10/04/2016 10:10:49 -10.57, 50.36 95.72 325
17 10/06/2016 23:21:55 14.83,-148.89 10/06/2016 23:11:59 14.83,-148.88 0.78 596
18 10/07/2016 00:07:39 -1.64, 21.62 10/06/2016 23:58:55 -1.63, 21.45 18.52 524
19 10/07/2016 00:55:54 -2.94,-169.78 10/07/2016 00:48:25 -3.04,-170.21 48.21 449
20 10/07/2016 01:44:02 7.43, -1.17 10/07/2016 01:37:48 7.60, -1.85 77.51 374




NCC Satellite Simultaneous Nadir Overpasses (SNOs) Prediction Service
